Back to catalog

STARLINK-30259

AliveCommunicationsVLEO
NORAD 57521·PAYLOAD·🇺🇸 United States

Launched Aug 8, 2023 from Vandenberg Space Force Base

Loading…

Next Passes (next 24 hours)

TLE

FreshSource: CelesTrak SupGP

Epoch: Sep 14, 2026, 21:13 UTC

1 57521C 23115A   26257.88451389  .00013349  00000+0  48356-3 0  2575
2 57521  43.0014  13.1703 0001665 261.0446 172.9686 15.27566666    10

Track STARLINK-30259 in real time with AllMySat

Download on the App Store